Regional Weather Roundup
Issued by NWS

Home | Current Version | Previous Version | Graphics & Text | Print | Product List | Glossary Off
Versions: 1 2 3 4 5 6 7 8 9 10 11 12 13 14 15 16 17 18 19 20 21 22 23 24 25 26 27 28 29 30 31 32 33 34 35 36 37 38 39 40 41 42 43 44 45 46 47 48 49 50

000
ASUS43 KDTX 230310
RWRMI
MICHIGAN HOURLY REGIONAL WEATHER ROUNDUP
NATIONAL WEATHER SERVICE DETROIT/PONTIAC MI
1100 PM EDT MON SEP 22 2014

NOTE: "FAIR" INDICATES FEW OR NO CLOUDS BELOW 12,000 FEET WITH NO
SIGNIFICANT WEATHER AND/OR OBSTRUCTION TO VISIBILITY.

MIZ047>049-052>055-059>063-066>070-074>076-081>083-230400-
SOUTHEAST LOWER MICHIGAN

CITY           SKY/WX    TMP DP  RH WIND       PRES   REMARKS
ADRIAN         CLEAR     47  44  90 NW3       30.27R
ALMA           CLEAR     50  47  89 W5        30.26R
ANN ARBOR      CLEAR     42  39  89 SW3       30.26R
BAD AXE        CLEAR     50  47  87 SW5       30.22R
CARO           CLEAR     46  45  97 CALM      30.22R
DETROIT CITY   CLEAR     54  45  71 CALM      30.26R
DETROIT        PTCLDY    51  46  83 S3        30.26S
FLINT          CLEAR     50  45  83 SW6       30.25R
GROSSE ILE     CLEAR     52  46  82 CALM      30.25R
HILLSDALE      CLEAR     45  44  99 CALM      30.27R
HOWELL         CLEAR     47  45  93 SW5       30.26R

CITY           SKY/WX    TMP DP  RH WIND       PRES   REMARKS
JACKSON        CLEAR     48  45  89 CALM      30.27R
LAMBERTVILLE   CLEAR     46  45  93 CALM      30.27R
LANSING        CLEAR     50  45  83 W3        30.27R
LAPEER         FAIR      47  45  90 CALM      30.24R
MASON          CLEAR     47  45  91 CALM      30.27R
MONROE         CLEAR     46  45  93 CALM      30.25R
MT. CLEMENS    CLEAR     49  45  87 SW5       30.23R
PONTIAC        PTCLDY    50  45  83 CALM      30.25R
PORT HOPE        N/A     52  46  80 SW6       30.19R
PORT HURON     CLEAR     43  43 100 CALM      30.24S
TRI CITIES     CLEAR     51  46  83 SW8       30.24R
TROY           CLEAR     53  45  76 CALM      30.27R
SAGINAW HB     CLEAR     52  50  93 SW7       30.23R
$$
MIZ043>046-050>051-056>058-064>065-071>073-077>080-230400-
SOUTHWEST LOWER MICHIGAN

CITY           SKY/WX    TMP DP  RH WIND       PRES   REMARKS
BATTLE CREEK   CLEAR     50  44  80 SW3       30.28R
BENTON HARBOR  CLEAR     45  44  97 CALM      30.27R
BIG RAPIDS     CLEAR     48  47  99 CALM      30.24R
COLDWATER      CLEAR     48  47  94 CALM      30.28R
FREMONT        FAIR      48  47  96 CALM      30.24R
HOLLAND        CLEAR     51  46  83 SE3       30.27R
GRAND RAPIDS   CLEAR     49  45  86 S5        30.27R
IONIA          FAIR      50  46  87 SW3       30.26R
KALAMAZOO      CLEAR     48  44  86 CALM      30.28R
LUDINGTON      CLEAR     55  52  91 S5        30.22S
MARSHALL       CLEAR     45  42  91 CALM      30.27R
MOUNT PLEASANT CLEAR     50  47  88 SW7       30.23R
MUSKEGON       PTCLDY    50  46  86 SE3       30.25S
SOUTH HAVEN    CLEAR     47  46  95 CALM      30.27R
$$
MIZ016>042-230400-
NORTHERN LOWER MICHIGAN

CITY           SKY/WX    TMP DP  RH WIND       PRES   REMARKS
ALPENA         CLEAR     52  46  80 SW5       30.16R
BEAVER ISLAND  CLEAR     58  54  85 SW13G18   30.13S
BELLAIRE       CLEAR     52  47  84 S3        30.18R
CADILLAC       CLEAR     48  46  93 SW6       30.21R
CHARLEVOIX     CLEAR     55  50  83 SW9       30.18R
FRANKFORT      CLEAR     56  51  82 S5        30.20R
GAYLORD        CLEAR     49  44  83 SW8       30.17R
GRAYLING       CLEAR     53  48  82 W5        30.19R
HARBOR SPRINGS CLEAR     57  49  75 W6        30.15R
HOUGHTON LAKE  CLEAR     53  47  79 SW6       30.20R
MANISTEE       CLEAR     46  43  87 CALM      30.22S
OSCODA         CLEAR     49  46  89 SW7       30.18R
PELLSTON       CLEAR     56  48  74 SW8       30.14R
ROGERS CITY    CLEAR     52  48  87 SW8       30.15R
TRAVERSE CITY  CLEAR     54  46  74 SW5       30.18R
$$
MIZ007>008-015-230400-
EASTERN UPPER MICHIGAN

CITY           SKY/WX    TMP DP  RH WIND       PRES   REMARKS
KINROSS        CLEAR     52  50  93 CALM      30.12R
MACKINAC ISLAN CLEAR     58  53  83 SW9G16    30.12R
NEWBERRY       CLEAR     51  50  95 SW8       30.11R
S. S. MARIE    CLEAR     52  48  86 W5        30.10S
MUNISING         N/A     55  48  77 SW9       30.09S
$$
MIZ004>006-011>014-085-230400-
CENTRAL UPPER MICHIGAN

CITY           SKY/WX    TMP DP  RH WIND       PRES   REMARKS
MANISTIQUE     CLEAR     53  51  92 SW5       30.12R
ESCANABA       CLEAR     52  46  82 W5        30.14R
MENOMINEE      CLEAR     55  48  76 SW5       30.16R
SAWYER-GWINN   CLEAR     53  47  80 SW7       30.12S
$$
MIZ001>003-009>011-084-230400-
WESTERN UPPER MICHIGAN

CITY           SKY/WX    TMP DP  RH WIND       PRES   REMARKS
IRON MOUNTAIN  CLEAR     50  45  83 CALM      30.14R
HOUGHTON       CLEAR     59  50  72 W12       30.07S
COPPER HARBOR    N/A     67  49  52 NW12G25   30.04R
IRONWOOD       CLEAR     57  52  82 SW8       30.12S
$$

ABBREVIATIONS USED IN REMARKS
   TC - TEMPERATURE IN CELSIUS
  WCI - WIND CHILL INDEX
   HX - HEAT INDEX
  VSB - VISIBILITY




USA.gov is the U.S. government's official web portal to all federal, state and local government web resources and services.